Total_Precipitation_Accumulation
10.57 7.26 6.41 5.66 6.33 4.11 1.78 1.64 1.82 2.19 2.31 2.33 2.63 2.99 2.05 1.53 0.97 0.74 0.73 0.72 0.38 0.34 0.29 0.40 0.57 0.53 0.23 0.26 0.29 0.32 0.39 1.05
6.96 5.70 4.95 4.65 4.82 5.35 3.72 2.50 2.16 1.89 1.86 1.82 1.74 2.23 2.13 1.50 1.02 0.76 0.83 0.72 0.50 0.40 0.50 0.63 0.58 0.54 0.55 0.47 0.36 0.28 0.15 0.28
3.69 2.64 1.87 2.18 2.32 2.72 3.34 3.29 2.69 2.72 2.92 2.12 1.68 1.56 2.08 1.72 1.22 0.93 0.98 0.86 0.69 0.56 0.65 0.66 0.53 0.45 0.32 0.29 0.24 0.24 0.17 0.24
1.37 0.91 0.54 0.57 0.72 0.84 1.40 2.16 2.53 2.24 3.57 2.48 2.13 1.25 1.37 1.27 1.43 1.16 1.01 1.12 0.76 0.81 0.65 0.49 0.37 0.25 0.17 0.13 0.10 0.22 0.21 0.28
0.79 0.59 0.40 0.47 0.33 0.40 0.58 1.20 2.02 2.28 2.49 2.34 2.36 1.41 1.53 1.27 1.48 1.19 1.04 1.50 0.97 0.93 0.68 0.47 0.31 0.30 0.29 0.16 0.22 0.20 0.22 0.19
0.35 0.41 0.50 0.85 0.66 0.40 0.43 0.87 1.66 1.82 1.46 1.33 1.72 1.25 1.35 1.37 1.13 1.05 0.81 1.32 1.01 0.84 0.62 0.52 0.53 0.52 0.41 0.29 0.31 0.24 0.24 0.22
0.40 0.21 0.33 0.41 0.50 0.64 0.60 0.73 1.03 1.32 1.16 0.54 1.17 1.06 0.94 1.38 1.17 1.09 0.72 1.25 0.80 0.54 0.57 0.53 0.61 0.68 0.60 0.51 0.28 0.37 0.22 0.27
0.48 0.44 0.39 0.39 0.45 0.43 0.59 0.81 1.12 1.06 1.15 0.56 0.48 0.76 0.99 1.42 1.32 1.15 0.77 0.93 0.81 0.68 0.45 0.52 0.50 0.70 0.56 0.49 0.36 0.37 0.18 0.18
0.62 1.03 0.52 0.38 0.40 0.51 0.51 0.62 0.96 1.07 1.14 0.94 0.57 0.44 0.64 0.94 1.13 0.96 0.79 0.80 0.72 0.85 0.78 0.61 0.59 0.86 0.60 0.52 0.42 0.45 0.25 0.12
0.67 1.29 0.95 0.59 0.48 0.71 0.69 0.88 1.07 1.23 1.45 1.29 0.84 0.66 0.63 0.71 0.90 1.11 1.00 0.97 0.62 0.56 0.78 0.62 0.57 0.78 0.79 0.56 0.53 0.45 0.42 0.13
0.50 0.84 1.09 1.04 1.00 1.08 0.99 1.00 1.19 1.31 1.39 1.59 1.43 1.28 1.16 1.00 0.91 0.97 1.27 0.95 0.69 0.68 0.66 0.68 0.49 0.61 0.80 0.69 0.60 0.47 0.54 0.46
0.59 0.75 1.23 1.69 1.13 0.75 0.95 1.23 1.10 1.09 1.07 1.25 1.35 1.21 1.58 1.69 1.59 1.08 1.03 1.00 0.85 0.92 0.92 0.83 0.68 0.53 0.69 0.79 0.57 0.66 0.59 0.63
0.65 1.02 1.01 0.69 0.57 0.56 0.74 0.87 0.97 1.01 0.88 1.03 1.45 1.49 1.52 2.02 2.27 2.37 1.55 0.75 0.73 0.82 1.16 1.18 1.09 0.93 1.26 1.23 0.90 0.62 0.66 0.60
0.34 0.22 0.30 0.36 0.39 0.46 0.55 0.66 0.87 0.95 1.03 0.96 1.27 1.43 1.67 1.68 1.88 2.19 2.19 1.46 0.91 0.77 1.09 1.53 1.64 1.56 1.65 1.42 1.09 0.86 0.61 0.66
0.14 0.25 0.43 0.38 0.34 0.44 0.61 0.89 1.16 1.07 1.04 0.78 0.81 1.11 1.43 1.70 1.89 1.88 1.69 1.48 1.30 1.19 1.36 1.77 1.66 1.62 1.43 1.73 1.47 1.10 0.81 0.67
0.22 0.27 0.32 0.27 0.38 0.56 0.55 0.56 0.67 0.56 0.51 0.58 0.60 0.94 1.45 1.99 2.22 2.01 2.26 2.36 1.47 0.98 0.73 1.11 1.61 1.75 2.01 1.57 0.94 0.81 0.77 0.77
0.15 0.27 0.33 0.26 0.39 0.75 0.85 0.82 0.61 0.52 0.51 0.63 0.74 0.93 1.28 1.61 1.97 2.02 1.98 1.84 1.61 1.17 0.72 0.59 0.88 1.13 1.14 1.33 1.63 1.35 0.99 0.71
0.16 0.18 0.32 0.34 0.35 0.60 1.04 1.45 1.71 1.78 1.44 1.02 0.80 0.97 1.24 1.52 1.65 1.83 2.34 2.44 2.25 1.87 1.72 1.37 1.03 1.08 1.29 1.27 0.98 0.91 0.99 1.10
0.27 0.19 0.20 0.24 0.28 0.29 0.45 0.75 1.11 1.60 2.25 3.02 2.89 2.32 2.04 2.23 2.38 2.20 2.30 2.58 3.15 2.65 2.56 2.30 2.12 1.69 1.53 1.32 1.27 1.03 0.86 0.89
0.39 0.37 0.36 0.23 0.24 0.34 0.48 0.58 0.74 1.08 1.22 1.57 2.40 3.17 2.83 3.13 3.56 3.80 3.22 2.88 3.29 3.49 2.98 2.79 3.03 2.84 2.34 1.87 1.50 1.51 1.55 1.45